ARIANE 44LP DEB, 48352

Orbit data source: Space-Track

ARIANE 44LP DEB, 48352 is space debris in HEO originally from a launch on Tue, 15 Jan 1991 UTC launched from the French Guiana (FRGUI). Debris objects in space refer to the collection of defunct objects orbiting the Earth. Examples of debris include non-operational satellites, rocket bodies, and fragments generated from explosions, collisions, or faulty payload assembly.

Loading next visibility...
Identifier
48352, 1991-003U
Orbit
HEO
Country
Flag of FRFR
Related business
Manufacturer
Unknown
Mission
Spacecraft
Bus & Motor
Unknown
Mass
Unknown
Launch date (UTC)
1991-01-15 (35 years ago)
Launch vehicle
Unknown
Launch site
French Guiana (FRGUI)
Object type
Payload
Rocket body
Debris
Shape & HBR
Unknown shape, 1.1 m
Radar Cross Section
Medium (>0.1 m² and <1 m²)

Expand to show TLE details & history
Last TLE update: 2 days ago

TLE from 2 days ago
0 ARIANE 44LP DEB
1 48352U 91003U   26171.44358463  .00000632  00000-0  13262-2 0  9996
2 48352   6.9094 200.0769 6106095 142.7542 281.5943  3.73169520153454
Epoch: 2026-06-20T10:38Z
TLE epoch observation values (Epoch: 2026-06-20T10:38:45.712Z)
Latitude
-0°
Longitude
131.82353°
Altitude
15,015.531 km
Speed
3.816 km/s
True Right ascension
13h 20m 41s
True Declination
0° 00' 00"
Sunlit
Object was in daylight at epoch
Visualization orbit readout
Latitude
Unknown
Longitude
Unknown
Altitude
Unknown
Speed
Unknown
Apparent Right ascension
Unknown
Apparent Declination
Unknown
Sunlit
N/A
Visualization observer readout
Local Sidereal Time
21:24:27
Azimuth
Unknown
Elevation
Unknown
Doppler factor
Unknown
Orbital elements
Apogee altitude
21,908.228 km
Perigee altitude
460.542 km
Semi-major axis
17,562.522 km
Eccentricity
0.61061
Inclination
6.9094°
RAAN
200.0769°
Arg. of periapsis
142.7542°
True anomaly
217.30784°
Mean anomaly
281.5943°
Eccentric anomaly
248.94477°
Mean motion
0.93253 °/min
Orbital period
386.05 mins
BSTAR
0.0013262
Loading maneuver chart data...
Computing Atmospheric mass density...
Loading historical data...
Loading historical data...
Loading historical data...
Loading historical data...
Loading historical data...
Loading historical data...
Loading historical data...

Documentation

Showing up to 5 results
|